{"data":{"norad_id":61661,"epoch":"2026-09-21T16:31:16.025088Z","epoch_age_seconds":89350,"freshness":"FRESH","line1":"1 61661U 24193A   26264.68837992  .00001810  00000+0  64695-4 0  9994","line2":"2 61661  53.1595 259.9951 0001185  85.2721 274.8417 15.34390507106546","mean_motion":15.34390507,"eccentricity":0.0001185,"inclination_deg":53.1595,"raan_deg":259.9951,"arg_perigee_deg":85.2721,"mean_anomaly_deg":274.8417,"bstar":6.4695e-5,"rev_number":10654,"period_min":93.848338700651,"perigee_km":461.92081263715,"apogee_km":463.54209846111,"semimajor_km":6840.8684555491,"source":"CELESTRAK","updated_at":"2026-09-22T09:00:49.399562Z"}}